[[{"header":{"parameterUnit":"m.s-1","parameterCategory":1,"la1":30.2991,"la2":30.254,"lo1":-89.0895,"lo2":-89.0444,"dy":0.0017,"dx":0.0017,"nx":28,"ny":28,"refTime":"2024-03-22T09:00:00:Z","depth":0,"parameterNumber":2,"parameterNumberName":"U-component_of_WINDS"},"data":[0,0,0,0,0,0,0,0,0,0,0,0,0,0,0,0,0,0,0,0,0,0,0,0,0,0,0,0,0,0,0,0,0,0,0,0,0,0,0,0,0,0,0,0,0,0,0,0,0,0,0,0,0,0,0,0,0,0,-1.9215,-1.9215,0,-1.9209,-1.9209,-1.9209,-1.9159,-1.9158,-1.9157,-1.9156,-1.9155,-1.9156,-1.9157,0,0,0,0,0,0,0,0,0,0,0,0,0,-1.9193,-1.9193,-1.9215,-1.9215,-1.9215,-1.9209,-1.9209,-1.9209,-1.916,-1.9158,-1.9157,-1.9155,-1.9154,-1.9156,-1.9157,0,0,0,0,0,0,0,0,0,0,0,0,0,-1.9196,-1.9194,-1.9215,-1.9189,-1.9187,-1.921,-1.9209,-1.9209,-1.916,-1.9158,-1.9156,-1.9154,-1.9154,-1.9155,-1.9157,-1.9205,0,0,-1.9162,-1.9163,0,0,0,0,0,0,0,0,-1.9196,-1.9197,-1.9193,-1.9191,-1.9189,-1.9183,-1.9201,-1.9208,-1.916,-1.917,-1.9156,-1.9153,-1.9166,-1.9167,-1.917,-1.9205,-1.9205,-1.9163,-1.9164,-1.9164,-1.9165,0,0,0,0,0,0,0,-1.9196,-1.9197,-1.9213,-1.9193,-1.9191,-1.9182,-1.918,-1.9202,-1.9179,-1.9169,-1.9166,-1.9165,-1.9164,-1.9168,-1.9169,-1.9205,-1.9162,-1.9164,-1.9165,-1.9166,-1.9287,-1.9289,0,0,0,0,0,0,-1.9198,-1.9197,-1.9213,-1.9213,-1.9188,-1.9183,-1.9182,-1.9187,-1.9178,-1.9175,-1.9167,-1.9163,-1.9166,-1.9167,-1.9169,-1.9227,-1.9164,-1.9166,-1.9167,-1.9285,-1.9288,-1.929,0,0,0,0,0,0,-1.9198,-1.92,-1.9213,-1.9204,-1.9205,-1.9186,-1.9192,-1.9188,-1.9191,-1.9177,-1.9173,-1.9174,-1.9165,-1.9167,-1.9198,-1.9226,-1.9167,-1.9168,-1.9283,-1.9286,-1.9289,-1.9342,0,0,0,0,0,0,-1.9198,-1.92,-1.9215,-1.9205,-1.9206,-1.9239,-1.9194,-1.9189,-1.9194,-1.9189,-1.9183,-1.918,-1.9163,-1.9196,-1.92,-1.9228,-1.917,-1.928,-1.9284,-1.9288,-1.9338,-1.9347,-1.9355,0,0,0,0,0,-1.9197,-1.923,-1.9216,-1.9218,-1.9224,-1.924,-1.9241,-1.922,-1.9196,-1.9213,-1.9205,-1.918,-1.9224,-1.9199,-1.9203,-1.9232,-1.9278,-1.9283,-1.9288,-1.9334,-1.9345,-1.9355,0,0,0,0,0,0,-1.9244,-1.9228,-1.9212,-1.9242,-1.9243,-1.9232,-1.9251,-1.9232,-1.924,-1.9235,-1.9211,-1.921,-1.9246,-1.9243,-1.9215,-1.9282,-1.9247,-1.9253,-1.9281,-1.9292,-1.93,-1.9298,-1.9171,0,0,0,0,0,-1.9258,-1.927,-1.9257,-1.9286,-1.9287,-1.927,-1.9276,-1.9261,-1.9261,-1.9261,-1.9255,-1.9258,-1.9274,-1.9283,-1.9296,-1.934,-1.934,-1.9363,-1.9372,-1.9379,-1.9383,-1.9411,-1.9422,-1.9306,-1.9306,-1.9306,0,0,-1.9286,-1.928,-1.9288,-1.9295,-1.9293,-1.931,-1.927,-1.9288,-1.9301,-1.9264,-1.9292,-1.929,-1.9293,-1.9332,-1.9348,-1.933,-1.9416,-1.9385,-1.9391,-1.9391,-1.9417,-1.9428,-1.9438,-1.931,-1.9309,-1.9309,0,0,-1.9346,-1.9342,-1.9366,-1.9367,-1.9366,-1.9356,-1.9363,-1.9356,-1.9353,-1.9381,-1.9356,-1.9374,-1.9399,-1.9403,-1.9409,-1.9481,-1.946,-1.9487,-1.9529,-1.9557,-1.9566,-1.9574,-1.9601,-1.961,-1.9492,-1.9492,-1.9492,0,-1.9381,-1.9402,-1.9381,-1.9402,-1.9408,-1.9378,-1.9405,-1.9408,-1.9412,-1.9418,-1.9399,-1.9434,-1.9434,-1.9475,-1.9494,-1.9499,-1.9508,-1.9484,-1.9566,-1.9574,-1.9581,-1.9606,-1.9616,-1.9496,-1.9495,-1.9495,-1.9495,0,-1.9447,-1.9463,-1.9484,-1.9488,-1.9497,-1.9521,-1.9508,-1.9521,-1.9508,-1.9502,-1.9535,-1.9536,-1.955,-1.956,-1.9546,-1.9602,-1.9591,-1.957,-1.9533,-1.9595,-1.9619,-1.9628,-1.95,-1.9499,-1.9498,-1.9497,0,0,-1.9526,-1.9526,-1.9534,-1.9538,-1.9539,-1.9553,-1.958,-1.9593,-1.9605,-1.9613,-1.9636,-1.9663,-1.9645,-1.9652,-1.9641,-1.9665,-1.9726,-1.9642,-1.9641,-1.9657,-1.979,-1.9803,-1.9815,-1.9714,-1.9716,-1.9718,-1.979,0,-1.9583,-1.9624,-1.9611,-1.9653,-1.967,-1.9648,-1.9672,-1.9678,-1.9676,-1.9693,-1.9692,-1.9711,-1.9686,-1.969,-1.9714,-1.9713,-1.9752,-1.9708,-1.9737,-1.9738,-1.9733,-1.9827,-1.9839,-1.9907,-1.9799,-1.98,-1.9801,0,-1.9652,-1.9663,-1.9707,-1.9711,-1.9718,-1.9739,-1.9754,-1.977,-1.978,-1.9777,-1.9789,-1.9776,-1.9807,-1.9775,-1.982,-1.9791,-1.9804,-1.9807,-1.981,-1.9808,-1.977,-1.9826,-1.9927,-1.9937,-1.9815,-1.9814,-1.9813,0,-1.9706,-1.9732,-1.9763,-1.9768,-1.9773,-1.9789,-1.9793,-1.9801,-1.9812,-1.9828,-1.9836,-1.9856,-1.9866,-1.9884,-1.9879,-1.9856,-1.9927,-1.9893,-1.9927,-1.9927,-1.9938,-1.9936,-2.004,-1.9952,-1.9952,-1.9951,-1.9951,0,-1.9768,-1.9796,-1.9787,-1.9806,-1.9839,-1.9828,-1.9862,-1.9864,-1.9873,-1.9895,-1.988,-1.9901,-1.9894,-1.9917,-1.9915,-1.9954,-1.996,-1.996,-1.9958,-1.9959,-1.9959,-1.9964,-1.9958,-1.9954,-1.9953,-1.9953,-1.9952,0,-1.983,-1.9825,-1.9857,-1.9863,-1.9865,-1.989,-1.9896,-1.9916,-1.9916,-1.9945,-1.9951,-1.9952,-1.9979,-1.9977,-2.0008,-2.0007,-2.0055,-2.005,-2.0051,-2.0048,-2.0082,-2.0078,-2.019,-2.0205,-2.0109,-2.011,-2.0111,0,-1.9868,-1.9889,-1.9898,-1.9911,-1.9916,-1.9937,-1.995,-1.9944,-1.9958,-1.9976,-1.9995,-2.0021,-2.0041,-2.0087,-2.0092,-2.0118,-2.0112,-2.015,-2.0115,-2.0117,-2.0111,-2.0109,-2.0112,-2.0154,-2.0155,-2.0156,-2.0157,0,-1.9936,-1.9935,-1.9951,-1.9971,-1.9986,-2.0001,-2.0015,-2.0028,-2.0024,-2.0042,-2.007,-2.0086,-2.012,-2.0147,-2.0173,-2.0182,-2.017,-2.017,-2.0178,-2.0177,-2.0177,-2.0177,-2.0066,-2.0165,-2.0164,-2.0164,-2.0163,-2.0163,-1.9986,-2.0005,-2.0016,-2.0038,-2.0048,-2.0063,-2.0083,-2.0088,-2.011,-2.0135,-2.0133,-2.0165,-2.0183,-2.0216,-2.0229,-2.0257,-2.0243,-2.0256,-2.0259,-2.0261,-2.0265,-2.0176,-2.0262,-2.0262,-2.0261,-2.0261,-2.0261,0,-2.0052,-2.006,-2.008,-2.0101,-2.012,-2.0109,-2.0126,-2.0144,-2.0171,-2.0188,-2.0209,-2.0244,-2.0273,-2.0285,-2.0314,-2.0335,-2.0331,-2.0343,-2.0339,-2.0342,-2.0275,-2.0263,-2.0346,-2.0346,-2.0346,-2.0346,-2.0346,-2.0346,-2.0088,-2.0121,-2.0123,-2.0164,-2.0173,-2.0202,-2.0213,-2.0229,-2.0242,-2.0282,-2.0305,-2.0313,-2.033,-2.0362,-2.039,-2.0393,-2.0404,-2.0418,-2.0419,-2.0355,-2.0346,-2.0338,-2.0327,-2.0421,-2.0421,-2.0484,-2.0484,-2.0485]},{"header":{"parameterUnit":"m.s-1","parameterCategory":1,"la1":30.2991,"la2":30.254,"lo1":-89.0895,"lo2":-89.0444,"dy":0.0017,"dx":0.0017,"nx":28,"ny":28,"refTime":"2024-03-22T09:00:00:Z","depth":0,"parameterNumber":3,"parameterNumberName":"V-component_of_WINDS"},"data":[0,0,0,0,0,0,0,0,0,0,0,0,0,0,0,0,0,0,0,0,0,0,0,0,0,0,0,0,0,0,0,0,0,0,0,0,0,0,0,0,0,0,0,0,0,0,0,0,0,0,0,0,0,0,0,0,0,0,-0.0543,-0.0542,0,-0.0446,-0.0445,-0.0444,-0.0377,-0.0376,-0.0376,-0.0375,-0.0276,-0.0274,-0.0272,0,0,0,0,0,0,0,0,0,0,0,0,0,-0.0665,-0.0663,-0.0543,-0.0542,-0.0541,-0.0447,-0.0445,-0.0444,-0.0377,-0.0376,-0.0376,-0.0375,-0.0277,-0.0275,-0.0272,0,0,0,0,0,0,0,0,0,0,0,0,0,-0.0594,-0.0662,-0.0544,-0.0496,-0.0491,-0.0447,-0.0445,-0.0444,-0.0377,-0.0376,-0.0375,-0.0375,-0.0278,-0.0275,-0.0272,-0.0267,0,0,-0.0262,-0.026,0,0,0,0,0,0,0,0,-0.0599,-0.059,-0.0504,-0.0499,-0.0493,-0.0423,-0.0452,-0.0384,-0.0377,-0.042,-0.0375,-0.0374,-0.0326,-0.0319,-0.0302,-0.0263,-0.0258,-0.0262,-0.026,-0.0258,-0.0257,0,0,0,0,0,0,0,-0.0603,-0.0594,-0.0505,-0.0503,-0.0496,-0.0478,-0.0467,-0.0439,-0.0379,-0.0416,-0.0411,-0.0401,-0.0323,-0.0305,-0.0299,-0.0257,-0.0262,-0.0259,-0.0257,-0.0256,-0.02,-0.0201,0,0,0,0,0,0,-0.0616,-0.0598,-0.0508,-0.0502,-0.0545,-0.0476,-0.0464,-0.0446,-0.0379,-0.0368,-0.0401,-0.0398,-0.0311,-0.0303,-0.0296,-0.0281,-0.0258,-0.0255,-0.0253,-0.02,-0.02,-0.0201,0,0,0,0,0,0,-0.0619,-0.0609,-0.0512,-0.0549,-0.0535,-0.0475,-0.0455,-0.0445,-0.0427,-0.0367,-0.0356,-0.0395,-0.031,-0.03,-0.0273,-0.0277,-0.0254,-0.0251,-0.0199,-0.02,-0.0201,-0.0255,0,0,0,0,0,0,-0.0623,-0.061,-0.061,-0.0549,-0.0533,-0.0493,-0.0456,-0.0443,-0.0422,-0.0417,-0.0359,-0.0348,-0.0309,-0.0278,-0.027,-0.0272,-0.0248,-0.0199,-0.02,-0.02,-0.0253,-0.0258,-0.0262,0,0,0,0,0,-0.0627,-0.0631,-0.061,-0.06,-0.0532,-0.0494,-0.0484,-0.0439,-0.0423,-0.042,-0.038,-0.035,-0.0278,-0.0276,-0.0266,-0.0267,-0.0198,-0.0199,-0.02,-0.0251,-0.0257,-0.0262,0,0,0,0,0,0,-0.0696,-0.0623,-0.0599,-0.0583,-0.0545,-0.0482,-0.0479,-0.0448,-0.0414,-0.041,-0.0355,-0.0342,-0.0319,-0.0291,-0.029,-0.0255,-0.0234,-0.0233,-0.0276,-0.0281,-0.0285,-0.0293,-0.0246,0,0,0,0,0,-0.0709,-0.0685,-0.0622,-0.0614,-0.0595,-0.054,-0.0522,-0.0489,-0.0448,-0.0431,-0.039,-0.035,-0.0317,-0.0297,-0.0265,-0.0248,-0.0231,-0.0243,-0.0247,-0.0251,-0.0251,-0.0234,-0.0237,-0.0204,-0.0204,-0.0204,0,0,-0.0737,-0.0693,-0.0682,-0.0626,-0.0593,-0.0566,-0.0527,-0.0503,-0.0482,-0.0428,-0.0399,-0.0366,-0.0317,-0.0293,-0.0281,-0.0268,-0.0256,-0.0253,-0.0257,-0.0254,-0.0235,-0.0238,-0.0241,-0.0205,-0.0205,-0.0205,0,0,-0.0772,-0.0739,-0.0726,-0.0691,-0.064,-0.0602,-0.0598,-0.0538,-0.0514,-0.0483,-0.0439,-0.0413,-0.036,-0.0324,-0.03,-0.0313,-0.0282,-0.0304,-0.0328,-0.0312,-0.0314,-0.0316,-0.0317,-0.0319,-0.0304,-0.0304,-0.0304,0,-0.0813,-0.0774,-0.0723,-0.0699,-0.0673,-0.062,-0.0603,-0.0573,-0.0514,-0.0496,-0.0483,-0.0409,-0.0373,-0.0337,-0.034,-0.0323,-0.0314,-0.0311,-0.0318,-0.0319,-0.032,-0.0321,-0.0322,-0.0307,-0.0307,-0.0306,-0.0306,0,-0.0823,-0.0796,-0.0791,-0.0732,-0.0706,-0.0687,-0.063,-0.0609,-0.0576,-0.0539,-0.0504,-0.0457,-0.0411,-0.04,-0.0371,-0.0358,-0.0351,-0.0329,-0.0306,-0.0327,-0.0326,-0.0326,-0.0311,-0.031,-0.0309,-0.0308,0,0,-0.0905,-0.0813,-0.0812,-0.0782,-0.0717,-0.0694,-0.0669,-0.0622,-0.0603,-0.0562,-0.0537,-0.0489,-0.0465,-0.0437,-0.0402,-0.0387,-0.0395,-0.0365,-0.0363,-0.037,-0.0372,-0.0389,-0.039,-0.0373,-0.0373,-0.0373,-0.0375,0,-0.0929,-0.0883,-0.0833,-0.0803,-0.0774,-0.0718,-0.0695,-0.0652,-0.0614,-0.0582,-0.0539,-0.0504,-0.0478,-0.0459,-0.0443,-0.0398,-0.0394,-0.0397,-0.0347,-0.0346,-0.036,-0.0391,-0.041,-0.0415,-0.0375,-0.0375,-0.0375,0,-0.0954,-0.0912,-0.0878,-0.081,-0.0796,-0.0777,-0.0726,-0.0697,-0.0643,-0.0616,-0.0581,-0.0541,-0.0508,-0.0487,-0.0438,-0.0441,-0.0417,-0.039,-0.0389,-0.0383,-0.0362,-0.0383,-0.0416,-0.0416,-0.0375,-0.0375,-0.0375,0,-0.1012,-0.0947,-0.0917,-0.0893,-0.0814,-0.0801,-0.0767,-0.0713,-0.0685,-0.064,-0.0621,-0.0573,-0.0547,-0.0509,-0.0455,-0.0446,-0.041,-0.0387,-0.0384,-0.0385,-0.038,-0.0381,-0.0408,-0.0367,-0.0367,-0.0367,-0.0367,0,-0.1044,-0.1025,-0.0942,-0.0923,-0.0898,-0.0838,-0.0814,-0.0775,-0.0726,-0.0696,-0.0645,-0.0619,-0.055,-0.0514,-0.0472,-0.0434,-0.0424,-0.0399,-0.0387,-0.0403,-0.0405,-0.0386,-0.0384,-0.0367,-0.0367,-0.0367,-0.0367,0,-0.1106,-0.105,-0.1013,-0.0938,-0.0919,-0.0903,-0.0838,-0.0816,-0.0772,-0.0735,-0.0723,-0.0654,-0.0608,-0.055,-0.0487,-0.0458,-0.0424,-0.0408,-0.0442,-0.0435,-0.0435,-0.0435,-0.045,-0.0447,-0.041,-0.041,-0.041,0,-0.113,-0.1114,-0.1036,-0.1011,-0.0978,-0.0941,-0.0911,-0.0849,-0.082,-0.0754,-0.0738,-0.0688,-0.0644,-0.0572,-0.0515,-0.0464,-0.0445,-0.0453,-0.0438,-0.0451,-0.0442,-0.0443,-0.0439,-0.0458,-0.0459,-0.046,-0.046,0,-0.1177,-0.1148,-0.1108,-0.1055,-0.1021,-0.0977,-0.0931,-0.0913,-0.0841,-0.081,-0.0761,-0.0727,-0.0658,-0.0607,-0.0547,-0.0509,-0.0471,-0.0465,-0.0461,-0.0476,-0.0495,-0.0481,-0.0452,-0.0465,-0.0465,-0.0464,-0.0464,-0.0464,-0.1219,-0.1199,-0.1139,-0.1094,-0.1051,-0.1008,-0.0981,-0.0932,-0.089,-0.0829,-0.0794,-0.0745,-0.0685,-0.06,-0.0563,-0.0522,-0.0508,-0.0504,-0.0502,-0.0502,-0.0505,-0.0502,-0.0511,-0.0511,-0.051,-0.051,-0.051,0,-0.1261,-0.1218,-0.1176,-0.1111,-0.1074,-0.1039,-0.0984,-0.0955,-0.0912,-0.0859,-0.0815,-0.0755,-0.0703,-0.064,-0.0583,-0.0561,-0.0542,-0.0548,-0.0549,-0.0539,-0.0522,-0.0529,-0.0564,-0.0564,-0.0564,-0.0564,-0.0564,-0.0564,-0.1278,-0.1241,-0.1204,-0.1143,-0.1099,-0.105,-0.1021,-0.0978,-0.0935,-0.087,-0.0826,-0.0784,-0.0725,-0.0662,-0.0611,-0.0593,-0.0573,-0.0585,-0.0562,-0.0546,-0.0542,-0.0537,-0.0544,-0.0581,-0.0581,-0.0582,-0.0582,-0.0582]}]]